Klawock, AK

3:46 PM AKDT on June 25, 2017 (GMT -0800)
Klawock

Weather History for PAKW - October, 2014

Change the Weather History Date:

Friday, October 17, 2014

  Actual Average Record
Temperature  
Mean Temperature 46 °F -  
Max Temperature 52 °F 49 °F 61 °F (2002)
Min Temperature 44 °F 40 °F 30 °F (2004)
Degree Days  
Heating Degree Days 19    
Moisture  
Dew Point 45 °F    
Average Humidity 96    
Maximum Humidity 100    
Minimum Humidity 86    
Precipitation  
Precipitation 0.28 in - - ()
Sea Level Pressure  
Sea Level Pressure 29.21 in    
Wind  
Wind Speed 11 mph (NNE)    
Max Wind Speed 15 mph    
Max Gust Speed 26 mph    
Visibility 7 miles    
Events Rain    
Averages and records for this station are not official NWS values.
T = Trace of Precipitation, MM = Missing Value Source: NWS Daily Summary

Daily Weather History Graph

Daily Weather History Graph

Search for Another Location

Airport or City:

Trip Planner

Search our weather history database for the weather conditions in past years. The results will help you decide how hot, cold, wet, or windy it might be!

Date:

Astronomy

Oct. 17, 2014 Rise Set
Actual Time 7:27 AM AKDT 5:46 PM AKDT
Civil Twilight 6:49 AM AKDT 6:24 PM AKDT
Nautical Twilight 6:07 AM AKDT 7:06 PM AKDT
Astronomical Twilight 5:24 AM AKDT 7:49 PM AKDT
Moon 12:41 AM AKDT (10/17) 3:29 PM AKDT (10/17)
Length of Visible Light 11h 34m
Length of Day
10h 19m
Waning Crescent, 31% of the Moon is Illuminated
Oct 17
Waning Crescent
Oct 23
New
Oct 30
First Quarter
Nov 6
Full
Nov 14
Last Quarter

Hourly Weather History & Observations

Time (AKDT) Temp. Windchill Dew Point Humidity Pressure Visibility Wind Dir Wind Speed Gust Speed Precip Events Conditions
12:53 AM 46.0 °F 40.6 °F 42.1 °F 86% 29.46 in 10.0 mi NNE 11.5 mph 21.9 mph N/A   Overcast
1:53 AM 46.0 °F 39.6 °F 42.1 °F 86% 29.44 in 10.0 mi NE 15.0 mph 24.2 mph 0.00 in Rain Light Rain
2:53 AM 45.0 °F 39.7 °F 43.0 °F 93% 29.41 in 5.0 mi NNE 10.4 mph 19.6 mph 0.02 in Rain Light Rain
3:53 AM 44.1 °F 38.1 °F 43.0 °F 96% 29.37 in 6.0 mi NE 11.5 mph 18.4 mph 0.06 in Rain Light Rain
4:53 AM 44.1 °F 37.7 °F 43.0 °F 96% 29.33 in 10.0 mi NNE 12.7 mph 24.2 mph 0.02 in Rain Light Rain
5:53 AM 44.1 °F 39.0 °F 43.0 °F 96% 29.30 in 8.0 mi NNE 9.2 mph 21.9 mph 0.02 in Rain Light Rain
6:53 AM 44.1 °F 38.6 °F 43.0 °F 96% 29.28 in 10.0 mi NNE 10.4 mph 17.3 mph 0.01 in   Overcast
7:53 AM 44.1 °F 39.5 °F 43.0 °F 96% 29.25 in 10.0 mi NNE 8.1 mph 26.5 mph 0.00 in   Overcast
8:53 AM 45.0 °F 38.9 °F 43.0 °F 93% 29.24 in 10.0 mi NNE 12.7 mph 23.0 mph N/A   Overcast
9:53 AM 45.0 °F 38.9 °F 43.0 °F 93% 29.24 in 10.0 mi NNE 12.7 mph 23.0 mph N/A   Overcast
10:53 AM 46.0 °F 40.2 °F 44.1 °F 93% 29.22 in 10.0 mi NNE 12.7 mph 25.3 mph 0.00 in Rain Light Rain
11:53 AM 46.9 °F - 45.0 °F 93% 29.20 in 10.0 mi NNE 12.7 mph 24.2 mph 0.00 in   Overcast
12:53 PM 46.9 °F - 45.0 °F 93% 29.19 in 9.0 mi NNE 13.8 mph 24.2 mph 0.00 in Rain Light Rain
1:53 PM 46.9 °F - 45.0 °F 93% 29.17 in 3.0 mi NNE 13.8 mph 26.5 mph 0.01 in Rain Light Rain
2:00 PM 46.9 °F - 45.0 °F 93% 29.16 in 1.8 mi NNE 13.8 mph 24.2 mph 0.01 in Rain Light Rain
2:15 PM 46.0 °F 41.0 °F 46.0 °F 100% 29.15 in 3.0 mi NNE 10.4 mph 23.0 mph 0.01 in Rain Light Rain
2:53 PM 46.9 °F - 46.0 °F 97% 29.14 in 5.0 mi NNE 12.7 mph 21.9 mph 0.03 in Rain Rain
3:04 PM 46.0 °F 40.2 °F 46.0 °F 100% 29.13 in 2.5 mi NNE 12.7 mph 23.0 mph 0.03 in Rain Rain
3:17 PM 46.0 °F 41.0 °F 46.0 °F 100% 29.13 in 4.0 mi NNE 10.4 mph 23.0 mph 0.05 in Rain Light Rain
3:53 PM 46.9 °F - 46.0 °F 97% 29.13 in 5.0 mi NNE 15.0 mph 23.0 mph 0.07 in Rain Light Rain
4:53 PM 46.9 °F - 46.0 °F 97% 29.12 in 9.0 mi NNE 10.4 mph 20.7 mph 0.01 in   Overcast
5:53 PM 46.9 °F - 46.0 °F 97% 29.12 in 10.0 mi NNE 10.4 mph - 0.00 in   Overcast
7:21 PM 48.0 °F - 46.9 °F 96% 29.11 in 10.0 mi NE 5.8 mph - N/A   Overcast
7:53 PM 48.0 °F - 46.9 °F 96% 29.12 in 9.0 mi NNE 6.9 mph - 0.00 in Rain Light Rain
8:39 PM 48.0 °F - 48.0 °F 100% 29.12 in 9.0 mi NNE 6.9 mph - 0.01 in   Overcast
8:51 PM 48.2 °F - 48.2 °F 100% 29.12 in 6.0 mi NE 6.9 mph - 0.01 in Rain Light Rain
8:53 PM 48.0 °F - 48.0 °F 100% 29.12 in 8.0 mi Variable 6.9 mph - 0.01 in Rain Light Rain
9:53 PM 48.9 °F - 48.9 °F 100% 29.13 in 7.0 mi Calm Calm - 0.01 in Rain Light Rain
11:53 PM 48.9 °F - 48.9 °F 100% 29.23 in 5.0 mi SSW 9.2 mph - 0.01 in Rain Light Rain